Hourly Weather Bolshie Orly

Today, 24 July, Saturday

Time Temperature Precipitation Wind Pressure Humidity
00:00 +17°C° 0 mm 2 mps 750 mmHg 80%
01:00 +16°C° 0 mm 2 mps 750 mmHg 83%
02:00 +15°C° 0 mm 2 mps 750 mmHg 87%
03:00 +15°C° 0 mm 2 mps 750 mmHg 87%
04:00 +15°C° 0 mm 2 mps 750 mmHg 87%
05:00 +15°C° 0 mm 1 mps 749 mmHg 87%
06:00 +18°C° 0 mm 1 mps 750 mmHg 80%
07:00 +20°C° 0 mm 1 mps 750 mmHg 74%
08:00 +22°C° 0 mm 1 mps 750 mmHg 66%
09:00 +23°C° 0 mm 2 mps 750 mmHg 62%
10:00 +24°C° 0 mm 2 mps 750 mmHg 59%
11:00 +25°C° 0 mm 2 mps 750 mmHg 55%
12:00 +26°C° 0.1 mm 2 mps 750 mmHg 53%
13:00 +26°C° 0.1 mm 2 mps 750 mmHg 51%
14:00 +27°C° 0.1 mm 2 mps 750 mmHg 48%
15:00 +26°C° 0 mm 2 mps 750 mmHg 50%
16:00 +26°C° 0 mm 2 mps 750 mmHg 52%
17:00 +25°C° 0 mm 2 mps 750 mmHg 54%
18:00 +24°C° 0 mm 2 mps 750 mmHg 56%
19:00 +23°C° 0 mm 1 mps 750 mmHg 58%
20:00 +22°C° 0 mm 1 mps 750 mmHg 61%
21:00 +22°C° 0 mm 1 mps 750 mmHg 62%
22:00 +22°C° 0 mm 1 mps 751 mmHg 64%
23:00 +21°C° 0 mm 1 mps 751 mmHg 66%

Tomorrow, 25 July, Sunday

Time Temperature Precipitation Wind Pressure Humidity
00:00 +21°C° 0 mm 1 mps 751 mmHg 67%
01:00 +21°C° 0 mm 1 mps 751 mmHg 68%
02:00 +21°C° 0 mm 1 mps 751 mmHg 70%
03:00 +20°C° 0 mm 1 mps 751 mmHg 70%
04:00 +20°C° 0 mm 1 mps 751 mmHg 71%
05:00 +20°C° 0 mm 1 mps 751 mmHg 72%
06:00 +21°C° 0 mm 1 mps 752 mmHg 68%
07:00 +22°C° 0 mm 1 mps 752 mmHg 64%
08:00 +23°C° 0 mm 1 mps 752 mmHg 61%
09:00 +24°C° 0 mm 2 mps 752 mmHg 59%
10:00 +24°C° 0 mm 2 mps 752 mmHg 57%
11:00 +25°C° 0 mm 2 mps 752 mmHg 56%
12:00 +25°C° 0 mm 2 mps 752 mmHg 53%
13:00 +26°C° 0 mm 2 mps 752 mmHg 51%
14:00 +26°C° 0 mm 2 mps 752 mmHg 48%
15:00 +27°C° 0 mm 2 mps 752 mmHg 47%
16:00 +27°C° 0 mm 2 mps 752 mmHg 45%
17:00 +27°C° 0 mm 2 mps 752 mmHg 44%
18:00 +26°C° 0 mm 2 mps 752 mmHg 49%
19:00 +24°C° 0 mm 2 mps 752 mmHg 54%
20:00 +23°C° 0 mm 2 mps 752 mmHg 60%
21:00 +21°C° 0 mm 2 mps 752 mmHg 62%
22:00 +20°C° 0 mm 2 mps 753 mmHg 63%
23:00 +20°C° 0 mm 2 mps 753 mmHg 65%

Day after tomorrow, 26 July, Monday

Time Temperature Precipitation Wind Pressure Humidity
00:00 +19°C° 0 mm 2 mps 753 mmHg 67%
01:00 +19°C° 0 mm 2 mps 753 mmHg 68%
02:00 +19°C° 0 mm 2 mps 753 mmHg 70%
03:00 +18°C° 0 mm 2 mps 753 mmHg 72%
04:00 +18°C° 0 mm 2 mps 753 mmHg 74%
05:00 +17°C° 0 mm 2 mps 753 mmHg 76%
06:00 +19°C° 0 mm 3 mps 753 mmHg 69%
07:00 +22°C° 0 mm 3 mps 753 mmHg 61%
08:00 +25°C° 0 mm 4 mps 753 mmHg 54%
09:00 +26°C° 0 mm 4 mps 753 mmHg 49%
10:00 +28°C° 0 mm 4 mps 753 mmHg 43%
11:00 +30°C° 0 mm 4 mps 753 mmHg 37%
12:00 +30°C° 0 mm 4 mps 753 mmHg 36%
13:00 +32°C° 0 mm 4 mps 752 mmHg 34%
14:00 +33°C° 0 mm 4 mps 752 mmHg 32%
15:00 +32°C° 0 mm 4 mps 752 mmHg 36%
16:00 +30°C° 0 mm 4 mps 752 mmHg 41%
17:00 +28°C° 0 mm 4 mps 752 mmHg 45%
18:00 +27°C° 0 mm 4 mps 752 mmHg 51%
19:00 +26°C° 0 mm 4 mps 752 mmHg 56%
20:00 +25°C° 0 mm 4 mps 752 mmHg 62%
21:00 +23°C° 0 mm 4 mps 752 mmHg 66%
22:00 +22°C° 0 mm 3 mps 752 mmHg 70%
23:00 +21°C° 0 mm 3 mps 752 mmHg 74%

27 July, Tuesday

Time Temperature Precipitation Wind Pressure Humidity
00:00 +21°C° 0 mm 3 mps 752 mmHg 73%
01:00 +21°C° 0 mm 3 mps 752 mmHg 72%
02:00 +21°C° 0 mm 3 mps 752 mmHg 71%
03:00 +20°C° 0 mm 4 mps 752 mmHg 71%
04:00 +19°C° 0 mm 4 mps 752 mmHg 72%
05:00 +19°C° 0 mm 4 mps 751 mmHg 72%
06:00 +21°C° 0 mm 4 mps 751 mmHg 67%
07:00 +22°C° 0 mm 5 mps 751 mmHg 61%
08:00 +25°C° 0 mm 5 mps 751 mmHg 56%
09:00 +27°C° 0 mm 5 mps 751 mmHg 50%
10:00 +29°C° 0 mm 6 mps 751 mmHg 44%
11:00 +32°C° 0 mm 6 mps 751 mmHg 38%
12:00 +33°C° 0 mm 6 mps 750 mmHg 37%
13:00 +34°C° 0 mm 6 mps 750 mmHg 35%
14:00 +34°C° 0 mm 6 mps 750 mmHg 34%
15:00 +34°C° 0 mm 5 mps 750 mmHg 37%
16:00 +34°C° 0 mm 5 mps 749 mmHg 39%
17:00 +33°C° 0 mm 5 mps 749 mmHg 42%
18:00 +29°C° 1.9 mm 4 mps 749 mmHg 57%
19:00 +26°C° 1.9 mm 3 mps 749 mmHg 72%
20:00 +22°C° 1.9 mm 3 mps 749 mmHg 87%
21:00 +21°C° 0.8 mm 3 mps 749 mmHg 89%
22:00 +21°C° 0.8 mm 3 mps 749 mmHg 91%
23:00 +20°C° 0.8 mm 4 mps 748 mmHg 93%

28 July, Wednesday

Time Temperature Precipitation Wind Pressure Humidity
00:00 +20°C° 0.1 mm 3 mps 748 mmHg 95%
01:00 +19°C° 0.1 mm 3 mps 748 mmHg 96%
02:00 +19°C° 0.1 mm 2 mps 748 mmHg 97%
03:00 +19°C° 0.1 mm 2 mps 748 mmHg 98%
04:00 +19°C° 0.1 mm 2 mps 748 mmHg 98%
05:00 +19°C° 0.1 mm 2 mps 748 mmHg 98%
06:00 +20°C° 0.1 mm 2 mps 748 mmHg 95%
07:00 +21°C° 0.1 mm 2 mps 748 mmHg 91%
08:00 +22°C° 0.1 mm 3 mps 747 mmHg 87%
09:00 +24°C° 0 mm 3 mps 747 mmHg 81%
10:00 +25°C° 0 mm 3 mps 747 mmHg 75%
11:00 +26°C° 0 mm 3 mps 748 mmHg 68%
12:00 +28°C° 0 mm 3 mps 747 mmHg 62%
13:00 +29°C° 0 mm 3 mps 747 mmHg 55%
14:00 +31°C° 0 mm 3 mps 747 mmHg 48%
15:00 +31°C° 0 mm 3 mps 747 mmHg 48%
16:00 +31°C° 0 mm 3 mps 747 mmHg 48%
17:00 +30°C° 0 mm 3 mps 747 mmHg 49%
18:00 +29°C° 0 mm 3 mps 747 mmHg 54%
19:00 +27°C° 0 mm 2 mps 747 mmHg 60%
20:00 +26°C° 0 mm 2 mps 747 mmHg 66%
21:00 +25°C° 0 mm 1 mps 747 mmHg 68%
22:00 +24°C° 0 mm 1 mps 747 mmHg 71%
23:00 +24°C° 0 mm 1 mps 747 mmHg 73%

29 July, Thursday

Time Temperature Precipitation Wind Pressure Humidity
00:00 +23°C° 0 mm 1 mps 747 mmHg 76%
01:00 +20°C° 0 mm 0 mps 747 mmHg 79%
02:00 +20°C° 0 mm 0 mps 747 mmHg 82%
03:00 +19°C° 0 mm 0 mps 747 mmHg 83%
04:00 +19°C° 0 mm 0 mps 747 mmHg 84%
05:00 +21°C° 0 mm 1 mps 747 mmHg 85%
06:00 +23°C° 0 mm 1 mps 747 mmHg 79%
07:00 +24°C° 0 mm 2 mps 747 mmHg 73%
08:00 +26°C° 0 mm 2 mps 748 mmHg 67%
09:00 +27°C° 0.1 mm 3 mps 748 mmHg 65%
10:00 +28°C° 0.1 mm 3 mps 748 mmHg 62%
11:00 +29°C° 0.1 mm 3 mps 748 mmHg 60%
12:00 +28°C° 0.6 mm 3 mps 748 mmHg 63%
13:00 +28°C° 0.6 mm 3 mps 748 mmHg 66%
14:00 +27°C° 0.6 mm 4 mps 748 mmHg 69%
15:00 +27°C° 0 mm 3 mps 748 mmHg 68%
16:00 +27°C° 0 mm 3 mps 748 mmHg 67%
17:00 +27°C° 0 mm 3 mps 747 mmHg 66%
18:00 +26°C° 0.3 mm 3 mps 748 mmHg 71%
19:00 +25°C° 0.3 mm 2 mps 748 mmHg 77%
20:00 +23°C° 0.3 mm 2 mps 748 mmHg 82%
21:00 +23°C° 0.2 mm 2 mps 748 mmHg 83%
22:00 +21°C° 0.2 mm 2 mps 748 mmHg 85%
23:00 +21°C° 0.2 mm 2 mps 748 mmHg 86%
Show more

We Need Your Consent

Meteoprog and our Service Providers may store and access personal data such as cookies, device identifiers or other similar technologies on your device and process such data to personalise content and ads, as well as provide social media features and to analyse the traffic.

  • Store and/or access information on your device

    Cookies, device identifiers or other information can be stored or accessed on your device for the purposes indicated above.

  • Personalised ads and content, ad and content measurement, audience insights, and products development

    Ads and content can be personalised based on a profile. More data can be added to better personalise ads and content. Ad and content performance can be measured. Insights about the audience who saw the ads and content can be derived. Such data can be used to develop or improve user’s experience, systems and software.

By clicking ‘I Agree’ you will allow the use of indicated cookies, device identifiers, web beacons or other similar technologies. Your settings can be changed in the browser on your device.

For certain purposes, legitimate interests may be relied on, rather than consent. You can read more about this in our Privacy and Cookie Policy.